START_TIME,STEP,MOV.,M34,t_acc.,L5,t_acc.,L18,t_acc.,L14,t_acc.
1979-07-12 09:00:25.090 ,0,0,3.,12.0,0.,12.0,0.,12.0,0.,12.0
1979-07-12 09:00:37.090 ,0,0,0.,12.0,0.,12.0,0.,12.0,0.,12.0
1979-07-12 09:00:49.090 ,0,1,1.,12.0,0.,12.0,0.,12.0,0.,12.0
1979-07-12 09:01:01.090 ,0,1,3.,12.0,0.,12.0,0.,12.0,0.,12.0
1979-07-12 09:01:13.090 ,0,0,2.,12.0,0.,12.0,0.,12.0,0.,12.0
1979-07-12 09:01:25.090 ,0,0,1.,12.0,0.,12.0,0.,12.0,1.,12.0
1979-07-12 09:01:37.090 ,1,1,2.,12.0,0.,12.0,0.,12.0,0.,12.0
1979-07-12 09:01:49.090 ,1,1,2.,12.0,0.,12.0,0.,12.0,0.,12.0
1979-07-12 09:02:01.090 ,1,0,3.,12.0,0.,12.0,0.,12.0,2.,12.0
1979-07-12 09:02:13.090 ,1,0,3.,12.0,0.,12.0,0.,12.0,0.,12.0
1979-07-12 09:02:25.090 ,2,1,1.,12.0,0.,12.0,0.,12.0,0.,12.0
1979-07-12 09:02:37.090 ,2,1,0.,12.0,0.,12.0,0.,12.0,0.,12.0
1979-07-12 09:02:49.090 ,2,0,2.,12.0,0.,12.0,0.,12.0,0.,12.0
1979-07-12 09:03:01.090 ,2,0,5.,12.0,0.,12.0,0.,12.0,0.,12.0
1979-07-12 09:03:13.090 ,3,1,4.,12.0,0.,12.0,0.,12.0,1.,12.0
1979-07-12 09:03:25.090 ,3,1,3.,12.0,0.,12.0,0.,12.0,0.,12.0
1979-07-12 09:03:37.090 ,3,0,8.,12.0,0.,12.0,0.,12.0,0.,12.0
1979-07-12 09:03:49.090 ,3,0,1.,12.0,0.,12.0,0.,12.0,1.,12.0
1979-07-12 09:04:01.090 ,4,1,4.,12.0,0.,12.0,0.,12.0,0.,12.0
1979-07-12 09:04:13.090 ,4,1,4.,12.0,0.,12.0,0.,12.0,0.,12.0
1979-07-12 09:04:25.090 ,4,0,9.,12.0,0.,12.0,0.,12.0,0.,12.0
1979-07-12 09:04:37.090 ,4,0,6.,12.0,0.,12.0,0.,12.0,1.,12.0
1979-07-12 09:04:49.090 ,5,1,4.,12.0,0.,12.0,0.,12.0,1.,12.0
1979-07-12 09:05:01.090 ,5,1,2.,12.0,0.,12.0,0.,12.0,1.,12.0
1979-07-12 09:05:13.090 ,5,0,0.,12.0,0.,12.0,0.,12.0,0.,12.0
1979-07-12 09:05:25.090 ,5,0,2.,12.0,0.,12.0,0.,12.0,0.,12.0
1979-07-12 09:05:37.090 ,6,1,4.,12.0,0.,12.0,0.,12.0,0.,12.0
1979-07-12 09:05:49.090 ,6,1,3.,12.0,0.,12.0,0.,12.0,0.,12.0
1979-07-12 09:06:01.090 ,6,0,2.,12.0,0.,12.0,0.,12.0,0.,12.0
1979-07-12 09:06:13.090 ,6,0,1.,12.0,0.,12.0,0.,12.0,1.,12.0
1979-07-12 09:06:25.090 ,7,0,3.,12.0,0.,12.0,0.,12.0,0.,12.0
1979-07-12 09:06:37.090 ,7,0,0.,12.0,0.,12.0,0.,12.0,0.,12.0
1979-07-12 09:06:49.090 ,7,0,0.,12.0,0.,12.0,0.,12.0,0.,12.0
1979-07-12 09:07:01.090 ,7,0,0.,12.0,0.,12.0,0.,12.0,0.,12.0
1979-07-12 09:07:13.090 ,4,1,0.,12.0,0.,12.0,0.,12.0,0.,12.0
1979-07-12 09:07:25.090 ,4,1,2.,12.0,0.,12.0,0.,12.0,1.,12.0
1979-07-12 09:07:37.090 ,0,1,4.,12.0,0.,12.0,0.,12.0,0.,12.0
1979-07-12 09:07:49.090 ,0,1,2.,12.0,0.,12.0,0.,12.0,0.,12.0
1979-07-12 09:08:01.090 ,3,1,0.,12.0,0.,12.0,0.,12.0,0.,12.0
1979-07-12 09:08:13.090 ,3,1,1.,12.0,0.,12.0,0.,12.0,0.,12.0
1979-07-12 09:08:25.090 ,7,1,6.,12.0,0.,12.0,0.,12.0,2.,12.0
1979-07-12 09:08:37.090 ,7,1,3.,12.0,0.,12.0,0.,12.0,0.,12.0
1979-07-12 09:08:49.090 ,4,1,2.,12.0,0.,12.0,0.,12.0,0.,12.0
1979-07-12 09:09:01.090 ,4,1,6.,12.0,0.,12.0,0.,12.0,0.,12.0
1979-07-12 09:09:13.090 ,0,1,7.,12.0,0.,12.0,0.,12.0,0.,12.0
1979-07-12 09:09:25.090 ,0,1,1.,12.0,0.,12.0,0.,12.0,0.,12.0
1979-07-12 09:09:37.090 ,3,1,6.,12.0,0.,12.0,0.,12.0,0.,12.0
1979-07-12 09:09:49.090 ,3,1,2.,12.0,0.,12.0,0.,12.0,0.,12.0
1979-07-12 09:10:01.090 ,7,1,4.,12.0,0.,12.0,0.,12.0,0.,12.0
1979-07-12 09:10:13.090 ,7,1,2.,12.0,0.,12.0,0.,12.0,0.,12.0
1979-07-12 09:10:25.090 ,4,1,1.,12.0,0.,12.0,0.,12.0,0.,12.0
1979-07-12 09:10:37.090 ,4,1,5.,12.0,0.,12.0,0.,12.0,0.,12.0
1979-07-12 09:10:49.090 ,0,1,2.,12.0,0.,12.0,0.,12.0,0.,12.0
1979-07-12 09:11:01.090 ,0,1,2.,12.0,0.,12.0,0.,12.0,0.,12.0
1979-07-12 09:11:13.090 ,3,1,4.,12.0,0.,12.0,0.,12.0,0.,12.0
1979-07-12 09:11:25.090 ,3,1,11.,12.0,0.,12.0,0.,12.0,0.,12.0
1979-07-12 09:11:37.090 ,7,1,7.,12.0,0.,12.0,0.,12.0,0.,12.0
1979-07-12 09:11:49.090 ,7,1,1.,12.0,0.,12.0,0.,12.0,0.,12.0
1979-07-12 09:12:01.090 ,4,1,1.,12.0,0.,12.0,0.,12.0,0.,12.0
1979-07-12 09:12:13.090 ,4,1,8.,12.0,0.,12.0,0.,12.0,1.,12.0
1979-07-12 09:12:25.090 ,0,1,13.,12.0,0.,12.0,0.,12.0,0.,12.0
1979-07-12 09:12:37.090 ,0,1,10.,12.0,0.,12.0,0.,12.0,0.,12.0
1979-07-12 09:12:49.090 ,3,1,3.,12.0,0.,12.0,0.,12.0,0.,12.0
1979-07-12 09:13:01.090 ,3,1,3.,12.0,0.,12.0,0.,12.0,0.,12.0
1979-07-12 09:13:13.090 ,7,1,8.,12.0,0.,12.0,0.,12.0,1.,12.0
1979-07-12 09:13:25.090 ,7,1,3.,12.0,0.,12.0,0.,12.0,0.,12.0
1979-07-12 09:13:37.090 ,4,1,2.,12.0,0.,12.0,0.,12.0,0.,12.0
1979-07-12 09:13:49.090 ,4,1,11.,12.0,0.,12.0,0.,12.0,0.,12.0
1979-07-12 09:14:01.090 ,0,1,24.,12.0,0.,12.0,0.,12.0,0.,12.0
1979-07-12 09:14:13.090 ,0,1,12.,12.0,0.,12.0,0.,12.0,1.,12.0
1979-07-12 09:14:25.090 ,3,1,8.,12.0,0.,12.0,0.,12.0,0.,12.0
1979-07-12 09:14:37.090 ,3,1,8.,12.0,0.,12.0,0.,12.0,1.,12.0
1979-07-12 09:14:49.090 ,7,1,22.,12.0,0.,12.0,0.,12.0,0.,12.0
1979-07-12 09:15:01.090 ,7,1,10.,12.0,0.,12.0,0.,12.0,0.,12.0
1979-07-12 09:15:13.090 ,4,1,2.,12.0,0.,12.0,0.,12.0,0.,12.0
1979-07-12 09:15:25.090 ,4,1,17.,12.0,0.,12.0,0.,12.0,0.,12.0
1979-07-12 09:15:37.090 ,0,1,13.,12.0,0.,12.0,0.,12.0,1.,12.0
1979-07-12 09:15:49.090 ,0,1,4.,12.0,0.,12.0,0.,12.0,0.,12.0
1979-07-12 09:16:01.090 ,3,1,6.,12.0,0.,12.0,0.,12.0,1.,12.0
1979-07-12 09:16:13.090 ,3,1,7.,12.0,0.,12.0,0.,12.0,0.,12.0
1979-07-12 09:16:25.090 ,7,1,12.,12.0,0.,12.0,0.,12.0,0.,12.0
1979-07-12 09:16:37.090 ,7,1,8.,12.0,0.,12.0,0.,12.0,0.,12.0
1979-07-12 09:16:49.090 ,4,1,3.,12.0,0.,12.0,0.,12.0,0.,12.0
1979-07-12 09:17:01.090 ,4,1,20.,12.0,0.,12.0,0.,12.0,0.,12.0
1979-07-12 09:17:13.090 ,0,1,15.,12.0,0.,12.0,0.,12.0,1.,12.0
1979-07-12 09:17:25.090 ,0,1,6.,12.0,0.,12.0,0.,12.0,0.,12.0
1979-07-12 09:17:37.090 ,0,0,2.,12.0,0.,12.0,0.,12.0,0.,12.0
1979-07-12 09:17:49.090 ,0,0,7.,12.0,0.,12.0,0.,12.0,0.,12.0
1979-07-12 09:18:01.090 ,0,0,12.,12.0,0.,12.0,0.,12.0,0.,12.0
1979-07-12 09:18:13.090 ,0,0,11.,12.0,0.,12.0,0.,12.0,0.,12.0
1979-07-12 09:18:25.090 ,5,1,4.,12.0,0.,12.0,0.,12.0,0.,12.0
1979-07-12 09:18:37.090 ,5,1,11.,12.0,0.,12.0,0.,12.0,0.,12.0
1979-07-12 09:18:49.090 ,5,0,12.,12.0,0.,12.0,0.,12.0,0.,12.0
1979-07-12 09:19:01.090 ,5,0,10.,12.0,0.,12.0,0.,12.0,0.,12.0
1979-07-12 09:19:13.090 ,4,1,9.,12.0,0.,12.0,0.,12.0,0.,12.0
1979-07-12 09:19:25.090 ,4,1,2.,12.0,0.,12.0,0.,12.0,0.,12.0
1979-07-12 09:19:37.090 ,4,0,13.,12.0,0.,12.0,0.,12.0,0.,12.0
1979-07-12 09:19:49.090 ,4,0,9.,12.0,0.,12.0,0.,12.0,0.,12.0
1979-07-12 09:20:01.090 ,3,1,5.,12.0,0.,12.0,0.,12.0,0.,12.0
1979-07-12 09:20:13.090 ,3,1,4.,12.0,0.,12.0,0.,12.0,1.,12.0
1979-07-12 09:20:25.090 ,3,0,6.,12.0,0.,12.0,0.,12.0,0.,12.0
1979-07-12 09:20:37.090 ,3,0,5.,12.0,0.,12.0,0.,12.0,0.,12.0
1979-07-12 09:20:49.090 ,2,1,7.,12.0,0.,12.0,0.,12.0,0.,12.0
1979-07-12 09:21:01.090 ,2,1,6.,12.0,0.,12.0,0.,12.0,0.,12.0
1979-07-12 09:21:13.090 ,2,0,3.,12.0,0.,12.0,0.,12.0,0.,12.0
1979-07-12 09:21:25.090 ,2,0,4.,12.0,0.,12.0,0.,12.0,2.,12.0
1979-07-12 09:21:37.090 ,1,1,3.,12.0,0.,12.0,0.,12.0,0.,12.0
1979-07-12 09:21:49.090 ,1,1,4.,12.0,0.,12.0,0.,12.0,0.,12.0
1979-07-12 09:22:01.090 ,1,0,3.,12.0,0.,12.0,0.,12.0,0.,12.0
1979-07-12 09:22:13.090 ,1,0,3.,12.0,0.,12.0,0.,12.0,0.,12.0
1979-07-12 09:22:25.090 ,0,1,3.,12.0,0.,12.0,0.,12.0,0.,12.0
1979-07-12 09:22:37.090 ,0,1,1.,12.0,0.,12.0,0.,12.0,0.,12.0
1979-07-12 09:22:49.090 ,0,0,2.,12.0,0.,12.0,0.,12.0,0.,12.0
1979-07-12 09:23:01.090 ,0,0,2.,12.0,0.,12.0,0.,12.0,1.,12.0
1979-07-12 09:23:13.090 ,0,1,1.,12.0,0.,12.0,0.,12.0,0.,12.0
1979-07-12 09:23:25.090 ,0,1,1.,12.0,0.,12.0,0.,12.0,0.,12.0
1979-07-12 09:23:37.090 ,0,0,2.,12.0,0.,12.0,0.,12.0,0.,12.0
1979-07-12 09:23:49.090 ,0,0,2.,12.0,0.,12.0,0.,12.0,0.,12.0
1979-07-12 09:24:01.090 ,1,1,0.,12.0,0.,12.0,0.,12.0,0.,12.0
1979-07-12 09:24:13.090 ,1,1,1.,12.0,0.,12.0,0.,12.0,0.,12.0
1979-07-12 09:24:25.090 ,1,0,4.,12.0,0.,12.0,0.,12.0,1.,12.0
1979-07-12 09:24:37.090 ,1,0,2.,12.0,0.,12.0,0.,12.0,0.,12.0
1979-07-12 09:24:49.090 ,2,1,1.,12.0,0.,12.0,0.,12.0,0.,12.0
1979-07-12 09:25:01.090 ,2,1,2.,12.0,0.,12.0,0.,12.0,0.,12.0
1979-07-12 09:25:13.090 ,2,0,0.,12.0,0.,12.0,0.,12.0,0.,12.0
1979-07-12 09:25:25.090 ,2,0,4.,12.0,0.,12.0,0.,12.0,0.,12.0
1979-07-12 09:25:37.090 ,3,1,3.,12.0,0.,12.0,0.,12.0,0.,12.0
1979-07-12 09:25:49.090 ,3,1,2.,12.0,0.,12.0,0.,12.0,0.,12.0
1979-07-12 09:26:01.090 ,3,0,4.,12.0,0.,12.0,0.,12.0,0.,12.0
1979-07-12 09:26:13.090 ,3,0,0.,12.0,0.,12.0,0.,12.0,0.,12.0
1979-07-12 09:26:25.090 ,4,1,6.,12.0,0.,12.0,0.,12.0,1.,12.0
1979-07-12 09:26:37.090 ,4,1,4.,12.0,0.,12.0,0.,12.0,0.,12.0
1979-07-12 09:26:49.090 ,4,0,3.,12.0,0.,12.0,0.,12.0,0.,12.0
1979-07-12 09:27:01.090 ,4,0,5.,12.0,0.,12.0,0.,12.0,0.,12.0
1979-07-12 09:27:13.090 ,5,1,4.,12.0,0.,12.0,0.,12.0,0.,12.0
1979-07-12 09:27:25.090 ,5,1,3.,12.0,0.,12.0,0.,12.0,1.,12.0
1979-07-12 09:27:37.090 ,5,0,2.,12.0,0.,12.0,0.,12.0,0.,12.0
1979-07-12 09:27:49.090 ,5,0,1.,12.0,0.,12.0,0.,12.0,0.,12.0
1979-07-12 09:28:01.090 ,6,1,3.,12.0,0.,12.0,0.,12.0,0.,12.0
1979-07-12 09:28:13.090 ,6,1,1.,12.0,0.,12.0,0.,12.0,0.,12.0
1979-07-12 09:28:25.090 ,6,0,2.,12.0,0.,12.0,0.,12.0,0.,12.0
1979-07-12 09:28:37.090 ,6,0,2.,12.0,0.,12.0,0.,12.0,0.,12.0
1979-07-12 09:28:49.090 ,7,1,1.,12.0,0.,12.0,0.,12.0,0.,12.0
1979-07-12 09:29:01.090 ,7,1,0.,12.0,0.,12.0,0.,12.0,0.,12.0
1979-07-12 09:29:13.090 ,7,0,0.,12.0,0.,12.0,0.,12.0,0.,12.0
1979-07-12 09:29:25.090 ,7,0,0.,12.0,0.,12.0,0.,12.0,0.,12.0
1979-07-12 09:29:37.090 ,7,1,0.,12.0,0.,12.0,0.,12.0,0.,12.0
1979-07-12 09:29:49.090 ,7,1,0.,12.0,0.,12.0,0.,12.0,0.,12.0
1979-07-12 09:30:01.090 ,7,0,0.,12.0,0.,12.0,0.,12.0,0.,12.0
1979-07-12 09:30:13.090 ,7,0,0.,12.0,0.,12.0,0.,12.0,0.,12.0
1979-07-12 09:30:25.090 ,6,1,0.,12.0,0.,12.0,0.,12.0,0.,12.0
1979-07-12 09:30:37.090 ,6,1,4.,12.0,0.,12.0,0.,12.0,0.,12.0
1979-07-12 09:30:49.090 ,6,0,7.,12.0,0.,12.0,0.,12.0,0.,12.0
1979-07-12 09:31:01.090 ,6,0,2.,12.0,0.,12.0,0.,12.0,0.,12.0
1979-07-12 09:31:13.090 ,5,1,5.,12.0,0.,12.0,0.,12.0,0.,12.0
1979-07-12 09:31:25.090 ,5,1,2.,12.0,0.,12.0,0.,12.0,0.,12.0
1979-07-12 09:31:37.090 ,5,0,5.,12.0,0.,12.0,0.,12.0,1.,12.0
1979-07-12 09:31:49.090 ,5,0,1.,12.0,0.,12.0,0.,12.0,0.,12.0
1979-07-12 09:32:01.090 ,4,1,3.,12.0,0.,12.0,0.,12.0,0.,12.0
1979-07-12 09:32:13.090 ,4,1,4.,12.0,0.,12.0,0.,12.0,0.,12.0
1979-07-12 09:32:25.090 ,4,0,2.,12.0,0.,12.0,0.,12.0,0.,12.0
1979-07-12 09:32:37.090 ,4,0,5.,12.0,0.,12.0,0.,12.0,0.,12.0
1979-07-12 09:32:49.090 ,3,1,3.,12.0,0.,12.0,0.,12.0,0.,12.0
1979-07-12 09:33:01.090 ,3,1,3.,12.0,0.,12.0,0.,12.0,0.,12.0
1979-07-12 09:33:13.090 ,3,0,4.,12.0,0.,12.0,0.,12.0,0.,12.0
1979-07-12 09:33:25.090 ,3,0,1.,12.0,0.,12.0,0.,12.0,0.,12.0
1979-07-12 09:33:37.090 ,2,1,1.,12.0,0.,12.0,0.,12.0,0.,12.0
1979-07-12 09:33:49.090 ,2,1,1.,12.0,0.,12.0,0.,12.0,0.,12.0
1979-07-12 09:34:01.090 ,2,0,2.,12.0,0.,12.0,0.,12.0,0.,12.0
1979-07-12 09:34:13.090 ,2,0,2.,12.0,0.,12.0,0.,12.0,1.,12.0
1979-07-12 09:34:25.090 ,1,1,0.,12.0,0.,12.0,0.,12.0,0.,12.0
1979-07-12 09:34:37.090 ,1,1,1.,12.0,0.,12.0,0.,12.0,0.,12.0
1979-07-12 09:34:49.090 ,1,0,1.,12.0,0.,12.0,0.,12.0,0.,12.0
1979-07-12 09:35:01.090 ,1,0,1.,12.0,0.,12.0,0.,12.0,0.,12.0
1979-07-12 09:34:49.090 ,1,0,1.,12.0,0.,12.0,0.,12.0,0.,12.0
1979-07-12 09:35:01.090 ,1,0,1.,12.0,0.,12.0,0.,12.0,0.,12.0
1979-07-12 09:35:13.090 ,0,1,2.,12.0,0.,12.0,0.,12.0,0.,12.0
1979-07-12 09:35:25.090 ,0,1,0.,12.0,0.,12.0,0.,12.0,0.,12.0
1979-07-12 09:35:37.090 ,0,0,0.,12.0,0.,12.0,0.,12.0,0.,12.0
1979-07-12 09:35:49.090 ,0,0,4.,12.0,0.,12.0,0.,12.0,0.,12.0
1979-07-12 09:36:01.090 ,0,1,2.,12.0,0.,12.0,0.,12.0,0.,12.0
1979-07-12 09:36:13.090 ,0,1,1.,12.0,0.,12.0,0.,12.0,1.,12.0
1979-07-12 09:36:25.090 ,0,0,0.,12.0,0.,12.0,0.,12.0,0.,12.0
1979-07-12 09:36:37.090 ,0,0,1.,12.0,0.,12.0,0.,12.0,2.,12.0
1979-07-12 09:36:49.090 ,1,1,4.,12.0,0.,12.0,0.,12.0,0.,12.0
1979-07-12 09:37:01.090 ,1,1,2.,12.0,0.,12.0,0.,12.0,0.,12.0
1979-07-12 09:37:13.090 ,1,0,2.,12.0,0.,12.0,0.,12.0,0.,12.0
1979-07-12 09:37:25.090 ,1,0,1.,12.0,0.,12.0,0.,12.0,0.,12.0
1979-07-12 09:37:37.090 ,2,1,1.,12.0,0.,12.0,0.,12.0,0.,12.0
1979-07-12 09:37:49.090 ,2,1,1.,12.0,0.,12.0,0.,12.0,0.,12.0
1979-07-12 09:38:01.090 ,2,0,1.,12.0,0.,12.0,0.,12.0,0.,12.0
1979-07-12 09:38:13.090 ,2,0,1.,12.0,0.,12.0,0.,12.0,0.,12.0
1979-07-12 09:38:25.090 ,3,1,1.,12.0,0.,12.0,0.,12.0,0.,12.0
1979-07-12 09:38:37.090 ,3,1,4.,12.0,0.,12.0,0.,12.0,0.,12.0
1979-07-12 09:38:49.090 ,3,0,2.,12.0,0.,12.0,0.,12.0,0.,12.0
1979-07-12 09:39:01.090 ,3,0,0.,12.0,0.,12.0,0.,12.0,0.,12.0
1979-07-12 09:39:13.090 ,4,1,2.,12.0,0.,12.0,0.,12.0,0.,12.0
1979-07-12 09:39:25.090 ,4,1,1.,12.0,0.,12.0,0.,12.0,0.,12.0
1979-07-12 09:39:37.090 ,4,0,1.,12.0,0.,12.0,0.,12.0,0.,12.0
1979-07-12 09:39:49.090 ,4,0,3.,12.0,0.,12.0,0.,12.0,0.,12.0
1979-07-12 09:40:01.090 ,5,1,0.,12.0,0.,12.0,0.,12.0,1.,12.0
1979-07-12 09:40:13.090 ,5,1,3.,12.0,0.,12.0,0.,12.0,0.,12.0
1979-07-12 09:40:25.090 ,5,0,3.,12.0,0.,12.0,0.,12.0,0.,12.0
1979-07-12 09:40:37.090 ,5,0,0.,12.0,0.,12.0,0.,12.0,0.,12.0
1979-07-12 09:40:49.090 ,6,1,1.,12.0,0.,12.0,0.,12.0,0.,12.0
1979-07-12 09:41:01.090 ,6,1,4.,12.0,0.,12.0,0.,12.0,0.,12.0
1979-07-12 09:41:13.090 ,6,0,0.,12.0,0.,12.0,0.,12.0,0.,12.0
1979-07-12 09:41:25.090 ,6,0,2.,12.0,0.,12.0,0.,12.0,0.,12.0
1979-07-12 09:41:37.090 ,7,1,3.,12.0,0.,12.0,0.,12.0,0.,12.0
1979-07-12 09:41:49.090 ,7,1,1.,12.0,0.,12.0,0.,12.0,0.,12.0
1979-07-12 09:42:01.090 ,7,0,0.,12.0,0.,12.0,0.,12.0,0.,12.0
1979-07-12 09:42:13.090 ,7,0,0.,12.0,0.,12.0,0.,12.0,0.,12.0
1979-07-12 09:42:25.090 ,7,1,0.,12.0,0.,12.0,0.,12.0,2.,12.0
1979-07-12 09:42:37.090 ,7,1,0.,12.0,0.,12.0,0.,12.0,0.,12.0
1979-07-12 09:42:49.090 ,7,0,0.,12.0,0.,12.0,0.,12.0,0.,12.0
1979-07-12 09:43:01.090 ,7,0,0.,12.0,0.,12.0,0.,12.0,1.,12.0
1979-07-12 09:43:13.090 ,6,1,0.,12.0,0.,12.0,0.,12.0,0.,12.0
1979-07-12 09:43:25.090 ,6,1,0.,12.0,0.,12.0,0.,12.0,0.,12.0
1979-07-12 09:43:37.090 ,6,0,2.,12.0,0.,12.0,0.,12.0,0.,12.0
1979-07-12 09:43:49.090 ,6,0,1.,12.0,0.,12.0,0.,12.0,0.,12.0
1979-07-12 09:44:01.090 ,5,1,0.,12.0,0.,12.0,0.,12.0,1.,12.0
1979-07-12 09:44:13.090 ,5,1,2.,12.0,0.,12.0,0.,12.0,0.,12.0
1979-07-12 09:44:25.090 ,5,0,3.,12.0,0.,12.0,0.,12.0,2.,12.0
1979-07-12 09:44:37.090 ,5,0,2.,12.0,0.,12.0,0.,12.0,0.,12.0
1979-07-12 09:44:49.090 ,4,1,1.,12.0,0.,12.0,0.,12.0,0.,12.0
1979-07-12 09:45:01.090 ,4,1,1.,12.0,0.,12.0,0.,12.0,0.,12.0
1979-07-12 09:45:13.090 ,4,0,0.,12.0,0.,12.0,0.,12.0,0.,12.0
1979-07-12 09:45:25.090 ,4,0,4.,12.0,0.,12.0,0.,12.0,0.,12.0
1979-07-12 09:45:37.090 ,3,1,3.,12.0,0.,12.0,0.,12.0,0.,12.0
1979-07-12 09:45:49.090 ,3,1,0.,12.0,0.,12.0,0.,12.0,0.,12.0
1979-07-12 09:46:01.090 ,3,0,1.,12.0,0.,12.0,0.,12.0,0.,12.0
1979-07-12 09:46:13.090 ,3,0,1.,12.0,0.,12.0,0.,12.0,0.,12.0
1979-07-12 09:46:25.090 ,2,1,1.,12.0,0.,12.0,0.,12.0,0.,12.0
1979-07-12 09:46:37.090 ,2,1,2.,12.0,0.,12.0,0.,12.0,0.,12.0
1979-07-12 09:46:49.090 ,2,0,1.,12.0,0.,12.0,0.,12.0,0.,12.0
1979-07-12 09:47:01.090 ,2,0,1.,12.0,0.,12.0,0.,12.0,0.,12.0
1979-07-12 09:47:13.090 ,1,1,2.,12.0,0.,12.0,0.,12.0,0.,12.0
1979-07-12 09:47:25.090 ,1,1,2.,12.0,0.,12.0,0.,12.0,0.,12.0
1979-07-12 09:47:37.090 ,1,0,1.,12.0,0.,12.0,0.,12.0,0.,12.0
1979-07-12 09:47:49.090 ,1,0,4.,12.0,0.,12.0,0.,12.0,0.,12.0
1979-07-12 09:48:01.090 ,0,1,2.,12.0,0.,12.0,0.,12.0,1.,12.0
1979-07-12 09:48:13.090 ,0,1,3.,12.0,0.,12.0,0.,12.0,0.,12.0
1979-07-12 09:48:25.090 ,0,0,2.,12.0,0.,12.0,0.,12.0,0.,12.0
1979-07-12 09:48:37.090 ,0,0,2.,12.0,0.,12.0,0.,12.0,0.,12.0
1979-07-12 09:48:49.090 ,0,1,2.,12.0,0.,12.0,0.,12.0,0.,12.0
1979-07-12 09:49:01.090 ,0,1,2.,12.0,0.,12.0,0.,12.0,1.,12.0
1979-07-12 09:49:13.090 ,0,0,0.,12.0,0.,12.0,0.,12.0,0.,12.0
1979-07-12 09:49:25.090 ,0,0,5.,12.0,1.,12.0,0.,12.0,0.,12.0
1979-07-12 09:49:37.090 ,1,1,2.,12.0,0.,12.0,0.,12.0,1.,12.0
1979-07-12 09:49:49.090 ,1,1,2.,12.0,0.,12.0,0.,12.0,0.,12.0
1979-07-12 09:50:01.090 ,1,0,2.,12.0,0.,12.0,0.,12.0,0.,12.0
1979-07-12 09:50:13.090 ,1,0,4.,12.0,0.,12.0,0.,12.0,0.,12.0
1979-07-12 09:50:25.090 ,2,1,2.,12.0,0.,12.0,0.,12.0,0.,12.0
1979-07-12 09:50:37.090 ,2,1,1.,12.0,0.,12.0,0.,12.0,1.,12.0
1979-07-12 09:50:49.090 ,2,0,1.,12.0,0.,12.0,0.,12.0,0.,12.0
1979-07-12 09:51:01.090 ,2,0,4.,12.0,0.,12.0,0.,12.0,0.,12.0
1979-07-12 09:51:13.090 ,3,1,6.,12.0,0.,12.0,0.,12.0,1.,12.0
1979-07-12 09:51:25.090 ,3,1,3.,12.0,0.,12.0,0.,12.0,0.,12.0
1979-07-12 09:51:37.090 ,3,0,7.,12.0,0.,12.0,0.,12.0,0.,12.0
1979-07-12 09:51:49.090 ,3,0,4.,12.0,0.,12.0,0.,12.0,0.,12.0
1979-07-12 09:52:01.090 ,4,1,6.,12.0,0.,12.0,0.,12.0,0.,12.0
1979-07-12 09:52:13.090 ,4,1,3.,12.0,0.,12.0,0.,12.0,0.,12.0
1979-07-12 09:52:25.090 ,4,0,4.,12.0,0.,12.0,0.,12.0,0.,12.0
1979-07-12 09:52:37.090 ,4,0,6.,12.0,0.,12.0,0.,12.0,0.,12.0
1979-07-12 09:52:49.090 ,5,1,7.,12.0,0.,12.0,0.,12.0,0.,12.0
1979-07-12 09:53:01.090 ,5,1,7.,12.0,0.,12.0,0.,12.0,0.,12.0
1979-07-12 09:53:13.090 ,5,0,7.,12.0,0.,12.0,0.,12.0,1.,12.0
1979-07-12 09:53:25.090 ,5,0,7.,12.0,0.,12.0,0.,12.0,0.,12.0
1979-07-12 09:53:37.090 ,6,1,3.,12.0,0.,12.0,0.,12.0,0.,12.0
1979-07-12 09:53:49.090 ,6,1,2.,12.0,0.,12.0,0.,12.0,0.,12.0
1979-07-12 09:54:01.090 ,6,0,5.,12.0,0.,12.0,0.,12.0,0.,12.0
1979-07-12 09:54:13.090 ,6,0,1.,12.0,0.,12.0,0.,12.0,1.,12.0
1979-07-12 09:54:25.090 ,7,0,2.,12.0,0.,12.0,0.,12.0,0.,12.0
1979-07-12 09:54:37.090 ,7,0,1.,12.0,0.,12.0,0.,12.0,0.,12.0
1979-07-12 09:54:49.090 ,7,0,0.,12.0,0.,12.0,0.,12.0,0.,12.0
1979-07-12 09:55:01.090 ,7,0,0.,12.0,0.,12.0,0.,12.0,0.,12.0
1979-07-12 09:55:13.090 ,4,1,1.,12.0,0.,12.0,0.,12.0,0.,12.0
1979-07-12 09:55:25.090 ,4,1,3.,12.0,0.,12.0,0.,12.0,0.,12.0
1979-07-12 09:55:37.090 ,0,1,2.,12.0,0.,12.0,0.,12.0,0.,12.0
1979-07-12 09:55:49.090 ,0,1,2.,12.0,0.,12.0,0.,12.0,0.,12.0
1979-07-12 09:56:01.090 ,3,1,3.,12.0,0.,12.0,0.,12.0,0.,12.0
1979-07-12 09:56:13.090 ,3,1,3.,12.0,0.,12.0,0.,12.0,0.,12.0
1979-07-12 09:56:25.090 ,7,1,1.,12.0,0.,12.0,0.,12.0,0.,12.0
1979-07-12 09:56:37.090 ,7,1,3.,12.0,0.,12.0,0.,12.0,0.,12.0
1979-07-12 09:56:49.090 ,4,1,0.,12.0,0.,12.0,0.,12.0,0.,12.0
1979-07-12 09:57:01.090 ,4,1,1.,12.0,0.,12.0,0.,12.0,0.,12.0
1979-07-12 09:57:13.090 ,0,1,1.,12.0,0.,12.0,0.,12.0,0.,12.0
1979-07-12 09:57:25.090 ,0,1,3.,12.0,0.,12.0,0.,12.0,1.,12.0
1979-07-12 09:57:37.090 ,3,1,0.,12.0,0.,12.0,0.,12.0,0.,12.0
1979-07-12 09:57:49.090 ,3,1,0.,12.0,0.,12.0,0.,12.0,0.,12.0
1979-07-12 09:58:01.090 ,7,1,3.,12.0,0.,12.0,0.,12.0,0.,12.0
1979-07-12 09:58:13.090 ,7,1,2.,12.0,0.,12.0,0.,12.0,0.,12.0
1979-07-12 09:58:25.090 ,4,1,1.,12.0,0.,12.0,0.,12.0,0.,12.0
1979-07-12 09:58:37.090 ,4,1,6.,12.0,0.,12.0,0.,12.0,0.,12.0
1979-07-12 09:58:49.090 ,0,1,3.,12.0,0.,12.0,0.,12.0,0.,12.0
1979-07-12 09:59:01.090 ,0,1,0.,12.0,0.,12.0,0.,12.0,0.,12.0
1979-07-12 09:59:13.090 ,3,1,2.,12.0,0.,12.0,0.,12.0,0.,12.0
1979-07-12 09:59:25.090 ,3,1,1.,12.0,0.,12.0,0.,12.0,0.,12.0
1979-07-12 09:59:37.090 ,7,1,0.,12.0,0.,12.0,0.,12.0,0.,12.0
1979-07-12 09:59:49.090 ,7,1,1.,12.0,0.,12.0,0.,12.0,1.,12.0
1979-07-12 10:00:01.090 ,4,1,0.,12.0,0.,12.0,0.,12.0,0.,12.0
1979-07-12 10:00:13.090 ,4,1,1.,12.0,0.,12.0,0.,12.0,0.,12.0
1979-07-12 10:00:25.090 ,0,1,3.,12.0,0.,12.0,0.,12.0,0.,12.0
1979-07-12 10:00:37.090 ,0,1,3.,12.0,0.,12.0,0.,12.0,0.,12.0
1979-07-12 10:00:49.090 ,3,1,1.,12.0,0.,12.0,0.,12.0,0.,12.0
1979-07-12 10:01:01.090 ,3,1,1.,12.0,0.,12.0,0.,12.0,0.,12.0
1979-07-12 10:01:13.090 ,7,1,4.,12.0,0.,12.0,0.,12.0,0.,12.0
1979-07-12 10:01:25.090 ,7,1,1.,12.0,0.,12.0,0.,12.0,0.,12.0
1979-07-12 10:01:37.090 ,4,1,0.,12.0,0.,12.0,0.,12.0,0.,12.0
1979-07-12 10:01:49.090 ,4,1,1.,12.0,0.,12.0,0.,12.0,0.,12.0
1979-07-12 10:02:01.090 ,0,1,1.,12.0,0.,12.0,0.,12.0,0.,12.0
1979-07-12 10:02:13.090 ,0,1,3.,12.0,0.,12.0,0.,12.0,0.,12.0
1979-07-12 10:02:25.090 ,3,1,1.,12.0,0.,12.0,0.,12.0,0.,12.0
1979-07-12 10:02:37.090 ,3,1,0.,12.0,0.,12.0,0.,12.0,1.,12.0
1979-07-12 10:02:49.090 ,7,1,1.,12.0,0.,12.0,0.,12.0,1.,12.0
1979-07-12 10:03:01.090 ,7,1,1.,12.0,0.,12.0,0.,12.0,0.,12.0
1979-07-12 10:03:13.090 ,4,1,0.,12.0,0.,12.0,0.,12.0,0.,12.0
1979-07-12 10:03:25.090 ,4,1,1.,12.0,0.,12.0,0.,12.0,0.,12.0
1979-07-12 10:03:37.090 ,0,1,1.,12.0,0.,12.0,0.,12.0,0.,12.0
1979-07-12 10:03:49.090 ,0,1,2.,12.0,0.,12.0,0.,12.0,0.,12.0
1979-07-12 10:04:01.090 ,3,1,1.,12.0,0.,12.0,0.,12.0,0.,12.0
1979-07-12 10:04:13.090 ,3,1,1.,12.0,0.,12.0,0.,12.0,0.,12.0
1979-07-12 10:04:25.090 ,7,1,2.,12.0,0.,12.0,0.,12.0,0.,12.0
1979-07-12 10:04:37.090 ,7,1,0.,12.0,0.,12.0,0.,12.0,0.,12.0
1979-07-12 10:04:49.090 ,4,1,0.,12.0,0.,12.0,0.,12.0,0.,12.0
1979-07-12 10:05:01.090 ,4,1,2.,12.0,0.,12.0,0.,12.0,0.,12.0
1979-07-12 10:05:13.090 ,0,1,1.,12.0,0.,12.0,0.,12.0,0.,12.0
1979-07-12 10:05:25.090 ,0,1,2.,12.0,0.,12.0,0.,12.0,0.,12.0
1979-07-12 10:05:37.090 ,0,0,2.,12.0,0.,12.0,0.,12.0,0.,12.0
1979-07-12 10:05:49.090 ,0,0,1.,12.0,0.,12.0,0.,12.0,1.,12.0
1979-07-12 10:06:01.090 ,0,0,2.,12.0,0.,12.0,0.,12.0,0.,12.0
1979-07-12 10:06:13.090 ,0,0,1.,12.0,0.,12.0,0.,12.0,0.,12.0
1979-07-12 10:06:25.090 ,5,1,0.,12.0,0.,12.0,0.,12.0,0.,12.0
1979-07-12 10:06:37.090 ,5,1,2.,12.0,0.,12.0,0.,12.0,0.,12.0
1979-07-12 10:06:49.090 ,5,0,3.,12.0,0.,12.0,0.,12.0,0.,12.0
1979-07-12 10:07:01.090 ,5,0,2.,12.0,0.,12.0,0.,12.0,0.,12.0
1979-07-12 10:07:13.090 ,4,1,0.,12.0,0.,12.0,0.,12.0,0.,12.0
1979-07-12 10:07:25.090 ,4,1,1.,12.0,0.,12.0,0.,12.0,0.,12.0
1979-07-12 10:07:37.090 ,4,0,1.,12.0,0.,12.0,0.,12.0,0.,12.0
1979-07-12 10:07:49.090 ,4,0,2.,12.0,0.,12.0,0.,12.0,0.,12.0
1979-07-12 10:08:01.090 ,3,1,4.,12.0,0.,12.0,0.,12.0,0.,12.0
1979-07-12 10:08:13.090 ,3,1,1.,12.0,0.,12.0,0.,12.0,0.,12.0
1979-07-12 10:08:25.090 ,3,0,3.,12.0,0.,12.0,0.,12.0,0.,12.0
1979-07-12 10:08:37.090 ,3,0,4.,12.0,0.,12.0,0.,12.0,0.,12.0
1979-07-12 10:08:49.090 ,2,1,3.,12.0,0.,12.0,0.,12.0,0.,12.0
1979-07-12 10:09:01.090 ,2,1,4.,12.0,0.,12.0,0.,12.0,0.,12.0
1979-07-12 10:09:13.090 ,2,0,6.,12.0,0.,12.0,0.,12.0,0.,12.0
1979-07-12 10:09:25.090 ,2,0,2.,12.0,0.,12.0,0.,12.0,0.,12.0
1979-07-12 10:09:37.090 ,1,1,3.,12.0,0.,12.0,0.,12.0,1.,12.0
1979-07-12 10:09:49.090 ,1,1,2.,12.0,0.,12.0,0.,12.0,0.,12.0
1979-07-12 10:10:01.090 ,1,0,2.,12.0,0.,12.0,0.,12.0,0.,12.0
1979-07-12 10:10:13.090 ,1,0,2.,12.0,0.,12.0,0.,12.0,0.,12.0
1979-07-12 10:10:25.090 ,0,1,6.,12.0,0.,12.0,0.,12.0,0.,12.0
1979-07-12 10:10:37.090 ,0,1,9.,12.0,0.,12.0,0.,12.0,0.,12.0
1979-07-12 10:10:49.090 ,0,0,2.,12.0,0.,12.0,0.,12.0,0.,12.0
1979-07-12 10:11:01.090 ,0,0,3.,12.0,0.,12.0,0.,12.0,0.,12.0
1979-07-12 10:11:13.090 ,0,1,6.,12.0,0.,12.0,0.,12.0,0.,12.0
1979-07-12 10:11:25.090 ,0,1,3.,12.0,0.,12.0,0.,12.0,0.,12.0
1979-07-12 10:11:37.090 ,0,0,7.,12.0,0.,12.0,0.,12.0,0.,12.0
1979-07-12 10:11:49.090 ,0,0,5.,12.0,0.,12.0,0.,12.0,1.,12.0
1979-07-12 10:12:01.090 ,1,1,6.,12.0,0.,12.0,0.,12.0,0.,12.0
1979-07-12 10:12:13.090 ,1,1,10.,12.0,0.,12.0,0.,12.0,0.,12.0
1979-07-12 10:12:25.090 ,1,0,22.,12.0,0.,12.0,0.,12.0,0.,12.0
1979-07-12 10:12:37.090 ,1,0,17.,12.0,0.,12.0,0.,12.0,0.,12.0
1979-07-12 10:12:49.090 ,2,1,13.,12.0,0.,12.0,0.,12.0,0.,12.0
1979-07-12 10:13:01.090 ,2,1,15.,12.0,0.,12.0,0.,12.0,0.,12.0
1979-07-12 10:13:13.090 ,2,0,14.,12.0,0.,12.0,0.,12.0,0.,12.0
1979-07-12 10:13:25.090 ,2,0,24.,12.0,0.,12.0,0.,12.0,0.,12.0
1979-07-12 10:13:37.090 ,3,1,22.,12.0,0.,12.0,0.,12.0,0.,12.0
1979-07-12 10:13:49.090 ,3,1,21.,12.0,0.,12.0,0.,12.0,0.,12.0
1979-07-12 10:14:01.090 ,3,0,14.,12.0,0.,12.0,0.,12.0,0.,12.0
1979-07-12 10:14:13.090 ,3,0,19.,12.0,0.,12.0,0.,12.0,0.,12.0
1979-07-12 10:14:25.090 ,4,1,24.,12.0,0.,12.0,0.,12.0,0.,12.0
1979-07-12 10:14:37.090 ,4,1,23.,12.0,0.,12.0,0.,12.0,0.,12.0
1979-07-12 10:14:49.090 ,4,0,21.,12.0,0.,12.0,0.,12.0,0.,12.0
1979-07-12 10:15:01.090 ,4,0,22.,12.0,0.,12.0,0.,12.0,0.,12.0
1979-07-12 10:15:13.090 ,5,1,19.,12.0,0.,12.0,0.,12.0,0.,12.0
1979-07-12 10:15:25.090 ,5,1,25.,12.0,0.,12.0,0.,12.0,0.,12.0
1979-07-12 10:15:37.090 ,5,0,31.,12.0,0.,12.0,0.,12.0,0.,12.0
1979-07-12 10:15:49.090 ,5,0,31.,12.0,0.,12.0,0.,12.0,0.,12.0
1979-07-12 10:16:01.090 ,6,1,27.,12.0,0.,12.0,0.,12.0,0.,12.0
1979-07-12 10:16:13.090 ,6,1,36.,12.0,0.,12.0,0.,12.0,0.,12.0
1979-07-12 10:16:25.090 ,6,0,42.,12.0,0.,12.0,0.,12.0,0.,12.0
1979-07-12 10:16:37.090 ,6,0,28.,12.0,0.,12.0,0.,12.0,0.,12.0
1979-07-12 10:16:49.090 ,7,1,32.,12.0,0.,12.0,0.,12.0,1.,12.0